WD4IXD-WX Weather Reports


time (UTC)temp
C
wind
direction
speed
KPH
gust
KPH
rain 1hr
cm
rain 24hr
cm
rain mn
cm
humidity
%
barometer
mb
20260508044003 3 274 14.5 22.5 0.00 0.00 0.00 66 1020.7
20260508043504 3 280 16.1 29.0 0.00 0.00 0.00 66 1020.8
20260508043004 3 280 19.3 32.2 0.00 0.00 0.00 66 1020.7
20260508042504 3 266 14.5 29.0 0.00 0.00 0.00 67 1020.7
20260508042004 2 294 8.0 22.5 0.00 0.00 0.00 70 1020.7
20260508041504 3 271 8.0 14.5 0.00 0.00 0.00 71 1020.7
20260508041004 3 251 9.7 19.3 0.00 0.00 0.00 71 1020.6
20260508040503 3 242 11.3 19.3 0.00 0.00 0.00 70 1020.7
20260508040004 3 253 8.0 20.9 0.00 0.00 0.00 70 1020.7
20260508035504 3 241 14.5 25.7 0.00 0.00 0.00 68 1020.8
20260508035004 3 241 14.5 27.4 0.00 0.00 0.00 66 1020.8
20260508034503 4 266 16.1 27.4 0.00 0.00 0.00 61 1020.8
20260508034004 5 227 14.5 25.7 0.00 0.00 0.00 58 1020.8
20260508033504 5 233 14.5 25.7 0.00 0.00 0.00 58 1020.8
20260508033004 5 232 11.3 22.5 0.00 0.00 0.00 58 1020.7
20260508032504 5 268 11.3 22.5 0.00 0.00 0.00 58 1020.7
20260508032004 5 261 14.5 22.5 0.00 0.00 0.00 57 1020.7
20260508031503 5 254 14.5 24.1 0.00 0.00 0.00 58 1020.6
20260508031004 5 254 12.9 20.9 0.00 0.00 0.00 58 1020.6
20260508030504 5 240 12.9 22.5 0.00 0.00 0.00 59 1020.5
20260508030003 5 265 14.5 22.5 0.00 0.00 0.00 59 1020.5
20260508025503 5 253 16.1 25.7 0.00 0.00 0.00 59 1020.5
20260508025004 5 243 12.9 27.4 0.00 0.00 0.00 59 1020.4
20260508024504 5 251 14.5 27.4 0.00 0.00 0.00 57 1020.3
20260508024003 5 240 16.1 32.2 0.00 0.00 0.00 55 1020.3
20260508023504 6 235 16.1 29.0 0.00 0.00 0.00 54 1020.3
20260508023003 6 240 14.5 27.4 0.00 0.00 0.00 51 1020.3
20260508022504 6 265 0.0 0.0 0.00 0.00 0.00 50 1020.2
20260508022003 6 259 0.0 0.0 0.00 0.00 0.00 49 1020.2
20260508021504 6 259 0.0 0.0 0.00 0.00 0.00 48 1020.1
20260508021003 6 245 0.0 0.0 0.00 0.00 0.00 48 1020.0
20260508020504 7 264 0.0 0.0 0.00 0.00 0.00 47 1020.0
20260508020004 7 262 8.0 27.4 0.00 0.00 0.00 47 1019.9
20260508015504 7 263 19.3 37.0 0.00 0.00 0.00 45 1019.8
20260508015004 7 261 16.1 32.2 0.00 0.00 0.00 45 1019.7
20260508014504 7 253 14.5 22.5 0.00 0.00 0.00 44 1019.7
20260508014003 7 265 0.0 0.0 0.00 0.00 0.00 43 1019.7
20260508013504 7 268 11.3 32.2 0.00 0.00 0.00 44 1019.6
20260508013004 7 263 19.3 35.4 0.00 0.00 0.00 43 1019.5
20260508012504 7 261 19.3 40.2 0.00 0.00 0.00 42 1019.4
20260508012004 7 264 16.1 33.8 0.00 0.00 0.00 42 1019.4
20260508011504 8 269 14.5 32.2 0.00 0.00 0.00 42 1019.4
20260508011003 8 268 19.3 32.2 0.00 0.00 0.00 39 1019.4
20260508010504 8 257 22.5 35.4 0.00 0.00 0.00 38 1019.4
20260508010004 8 256 19.3 33.8 0.00 0.00 0.00 37 1019.3
20260508005504 8 265 14.5 32.2 0.00 0.00 0.00 38 1019.3
20260508005003 8 260 20.9 41.8 0.00 0.00 0.00 38 1019.3
20260508004503 8 253 11.3 22.5 0.00 0.00 0.00 39 1019.4
20260508004004 8 267 0.0 0.0 0.00 0.00 0.00 40 1019.5
20260508003503 8 286 0.0 0.0 0.00 0.00 0.00 40 1019.4
20260508003005 8 274 1.6 19.3 0.00 0.00 0.00 40 1019.4
20260508002503 8 272 9.7 22.5 0.00 0.00 0.00 40 1019.5
20260508002004 8 254 16.1 29.0 0.00 0.00 0.00 38 1019.4
20260508001504 8 249 16.1 35.4 0.00 0.00 0.00 39 1019.5
20260508001004 8 258 17.7 33.8 0.00 0.00 0.00 39 1019.4
20260508000504 8 246 19.3 35.4 0.00 0.00 0.00 39 1019.4
20260508000004 9 235 16.1 33.8 0.00 0.00 0.00 38 1019.5
20260507235503 10 254 16.1 32.2 0.00 0.00 0.00 38 1019.5
20260507235004 10 260 19.3 40.2 0.00 0.00 0.00 37 1019.4
20260507234503 10 265 20.9 38.6 0.00 0.00 0.00 37 1019.4
20260507234004 10 251 20.9 38.6 0.00 0.00 0.00 35 1019.4
20260507233503 10 242 19.3 38.6 0.00 0.00 0.00 37 1019.4
20260507233003 10 253 17.7 32.2 0.00 0.00 0.00 38 1019.4
20260507232504 10 267 19.3 37.0 0.00 0.00 0.00 37 1019.4
20260507232003 10 260 20.9 37.0 0.00 0.00 0.00 35 1019.4
20260507231504 10 255 19.3 37.0 0.00 0.00 0.00 35 1019.5
20260507231003 10 280 19.3 41.8 0.00 0.00 0.00 36 1019.5
20260507230503 9 270 19.3 35.4 0.00 0.00 0.00 37 1019.5
20260507230004 9 241 17.7 35.4 0.00 0.00 0.00 37 1019.3
20260507225503 8 271 20.9 40.2 0.00 0.00 0.00 37 1019.4
20260507225004 8 280 17.7 38.6 0.00 0.00 0.00 38 1019.4
20260507224505 8 238 9.7 33.8 0.00 0.00 0.00 38 1019.4
20260507224004 8 270 12.9 27.4 0.00 0.00 0.00 39 1019.5
20260507223504 8 282 11.3 22.5 0.00 0.00 0.00 39 1019.5
20260507223004 8 289 17.7 29.0 0.00 0.00 0.00 39 1019.5
20260507222503 8 290 9.7 19.3 0.00 0.00 0.00 38 1019.5
20260507222004 8 276 14.5 27.4 0.00 0.00 0.00 37 1019.6
20260507221505 8 284 8.0 16.1 0.00 0.00 0.00 40 1019.6
20260507221003 8 269 9.7 22.5 0.00 0.00 0.00 40 1019.7
20260507220504 8 292 8.0 24.1 0.00 0.00 0.00 39 1019.7
20260507220004 8 297 9.7 25.7 0.00 0.00 0.00 40 1019.7
20260507215504 8 286 8.0 22.5 0.00 0.00 0.00 38 1019.8
20260507215003 8 301 14.5 32.2 0.00 0.00 0.00 38 1019.9
20260507214504 8 286 9.7 19.3 0.00 0.00 0.00 40 1019.9
20260507214003 8 292 11.3 24.1 0.00 0.00 0.00 39 1019.9
20260507213504 8 276 19.3 32.2 0.00 0.00 0.00 39 1019.9
20260507213004 9 282 16.1 24.1 0.00 0.00 0.00 39 1020.0
20260507212503 9 272 14.5 32.2 0.00 0.03 0.00 37 1020.0
20260507212004 10 268 14.5 24.1 0.00 0.03 0.00 38 1020.0
20260507211504 10 270 16.1 27.4 0.00 0.03 0.00 39 1020.0
20260507211004 9 276 20.9 33.8 0.00 0.03 0.00 38 1020.1
20260507210504 8 266 11.3 29.0 0.00 0.03 0.00 42 1020.2
20260507210004 9 270 19.3 27.4 0.00 0.03 0.00 38 1020.2
20260507205503 9 292 19.3 32.2 0.00 0.03 0.00 40 1020.2
20260507205004 10 270 17.7 33.8 0.00 0.03 0.00 40 1020.3
20260507204503 10 286 11.3 29.0 0.00 0.03 0.00 40 1020.2
20260507204004 10 262 17.7 35.4 0.00 0.03 0.00 41 1020.2
20260507203504 8 252 19.3 40.2 0.00 0.05 0.00 40 1020.3
20260507203004 9 264 19.3 32.2 0.00 0.05 0.00 40 1020.3
20260507202504 9 280 16.1 25.7 0.00 0.05 0.00 41 1020.3
20260507202004 9 304 19.3 29.0 0.00 0.08 0.00 40 1020.2
20260507201504 10 310 16.1 29.0 0.00 0.10 0.00 40 1020.2
20260507201003 9 263 11.3 27.4 0.00 0.10 0.00 42 1020.2
20260507200504 9 280 11.3 22.5 0.00 0.10 0.00 41 1020.3
20260507200003 9 331 11.3 20.9 0.00 0.10 0.00 41 1020.3
20260507195503 8 338 12.9 24.1 0.00 0.10 0.00 40 1020.3
20260507195003 8 280 9.7 25.7 0.00 0.10 0.00 42 1020.3
20260507194504 8 279 12.9 22.5 0.00 0.10 0.00 42 1020.3
20260507194003 8 338 14.5 22.5 0.00 0.10 0.00 42 1020.3
20260507193504 8 329 16.1 24.1 0.00 0.10 0.00 42 1020.3
20260507193004 8 276 12.9 22.5 0.00 0.10 0.00 42 1020.4
20260507192503 8 303 16.1 25.7 0.00 0.10 0.00 41 1020.3
20260507192004 8 288 14.5 20.9 0.00 0.10 0.00 43 1020.3
20260507191503 8 275 19.3 27.4 0.00 0.10 0.00 44 1020.3
20260507191003 8 280 12.9 24.1 0.00 0.10 0.00 44 1020.3
20260507190504 8 279 9.7 22.5 0.00 0.10 0.00 43 1020.4
20260507190005 8 266 14.5 27.4 0.00 0.10 0.00 43 1020.4
20260507185503 8 277 16.1 24.1 0.00 0.10 0.00 43 1020.4
20260507185004 8 317 11.3 19.3 0.00 0.10 0.00 46 1020.4
20260507184504 8 256 12.9 29.0 0.00 0.10 0.00 41 1020.4
20260507184004 8 269 16.1 27.4 0.00 0.10 0.00 43 1020.5
20260507183504 8 262 12.9 22.5 0.00 0.10 0.00 45 1020.5
20260507183003 8 261 11.3 19.3 0.00 0.10 0.00 46 1020.7
20260507182504 7 227 11.3 24.1 0.00 0.10 0.00 45 1020.7
20260507182004 7 224 14.5 24.1 0.00 0.10 0.00 47 1020.6
20260507181504 7 227 11.3 25.7 0.00 0.10 0.00 47 1020.7
20260507181004 7 258 11.3 22.5 0.00 0.10 0.00 45 1020.8
20260507180503 7 242 11.3 19.3 0.00 0.10 0.00 46 1020.8
20260507180004 7 270 14.5 24.1 0.00 0.10 0.00 44 1020.8
20260507175503 7 269 6.4 24.1 0.00 0.10 0.00 44 1020.8
20260507175004 7 274 12.9 24.1 0.00 0.10 0.00 44 1020.9
20260507174503 7 271 11.3 20.9 0.00 0.10 0.00 45 1020.9
20260507174004 7 272 11.3 19.3 0.00 0.10 0.00 47 1020.9
20260507173504 6 346 14.5 22.5 0.00 0.10 0.00 47 1021.0
20260507173004 6 309 17.7 29.0 0.00 0.10 0.00 45 1020.9
20260507172504 6 302 1.6 14.5 0.00 0.10 0.00 47 1021.0
20260507172003 6 293 0.0 0.0 0.00 0.10 0.00 48 1021.0
20260507171504 6 310 0.0 12.9 0.00 0.13 0.00 47 1021.0
20260507171005 6 288 8.0 16.1 0.00 0.13 0.00 48 1021.1
20260507170504 6 266 6.4 14.5 0.00 0.13 0.00 50 1021.1
20260507170004 6 296 6.4 16.1 0.00 0.13 0.00 47 1021.1
20260507165504 6 264 8.0 19.3 0.00 0.13 0.00 47 1021.2
20260507165003 5 289 9.7 16.1 0.00 0.13 0.00 48 1021.2
20260507164504 5 248 8.0 19.3 0.00 0.13 0.00 49 1021.1
20260507164003 5 250 3.2 9.7 0.00 0.13 0.00 49 1021.2
20260507163504 5 134 3.2 4.8 0.00 0.13 0.00 50 1021.2
20260507163003 5 134 3.2 4.8 0.00 0.13 0.00 51 1021.3
20260507162504 5 131 1.6 11.3 0.00 0.13 0.00 52 1021.4
20260507162003 5 76 4.8 9.7 0.00 0.13 0.00 51 1021.5
20260507161504 4 9 3.2 8.0 0.00 0.13 0.00 52 1021.6
20260507161003 3 34 1.6 8.0 0.00 0.13 0.00 52 1021.5
20260507160503 3 339 4.8 14.5 0.00 0.13 0.00 50 1021.5
20260507160004 3 47 3.2 4.8 0.00 0.13 0.00 54 1021.4
20260507155504 3 158 1.6 4.8 0.00 0.13 0.00 53 1021.4
20260507155004 3 158 3.2 8.0 0.00 0.13 0.00 53 1021.5
20260507154504 2 158 0.0 3.2 0.00 0.13 0.00 54 1021.6
20260507154004 2 158 0.0 4.8 0.00 0.13 0.00 52 1021.6
20260507153504 2 157 1.6 8.0 0.00 0.13 0.00 54 1021.6
20260507153004 2 158 3.2 9.7 0.00 0.13 0.00 55 1021.6
20260507152503 2 240 1.6 9.7 0.00 0.13 0.00 55 1021.6
20260507152005 1 209 1.6 4.8 0.00 0.13 0.00 55 1021.5
20260507151503 1 215 4.8 9.7 0.00 0.13 0.00 55 1021.7
20260507151004 1 213 4.8 8.0 0.00 0.13 0.00 53 1021.7
20260507150504 1 208 1.6 4.8 0.00 0.13 0.00 56 1021.7
20260507150004 1 223 4.8 8.0 0.00 0.13 0.00 58 1021.7
20260507145503 1 215 3.2 9.7 0.00 0.13 0.00 58 1021.8
20260507145004 1 213 3.2 9.7 0.00 0.13 0.00 57 1021.8
20260507144504 1 211 1.6 4.8 0.00 0.13 0.00 60 1021.7
20260507144004 0 211 0.0 4.8 0.00 0.13 0.00 61 1021.8
20260507143504 0 211 3.2 4.8 0.00 0.13 0.00 60 1021.8
20260507143004 0 210 3.2 8.0 0.00 0.13 0.00 63 1021.8
20260507142504 0 219 4.8 9.7 0.00 0.13 0.00 61 1021.8
20260507142004 0 224 6.4 9.7 0.00 0.13 0.00 61 1021.7
20260507141503 0 227 6.4 8.0 0.00 0.13 0.00 62 1021.7
20260507141004 0 223 8.0 11.3 0.00 0.13 0.00 60 1021.7
20260507140504 0 226 6.4 11.3 0.00 0.13 0.00 60 1021.7
20260507140004 0 257 8.0 11.3 0.00 0.13 0.00 59 1021.7
20260507135504 -1 239 6.4 11.3 0.00 0.13 0.00 61 1021.7
20260507135004 -1 259 3.2 9.7 0.00 0.13 0.00 60 1021.6
20260507134504 -1 272 6.4 12.9 0.00 0.13 0.00 59 1021.6
20260507134004 -2 271 4.8 11.3 0.00 0.13 0.00 59 1021.6
20260507133504 -2 285 8.0 12.9 0.00 0.13 0.00 58 1021.6
20260507133003 -2 292 3.2 4.8 0.00 0.13 0.00 58 1021.5
20260507132504 -2 66 3.2 4.8 0.00 0.13 0.00 58 1021.4
20260507132003 -2 68 3.2 4.8 0.00 0.13 0.00 60 1021.4
20260507131504 -3 92 1.6 4.8 0.00 0.13 0.00 60 1021.3
20260507131003 -3 107 0.0 3.2 0.00 0.13 0.00 62 1021.4
20260507130504 -3 107 0.0 1.6 0.00 0.13 0.00 61 1021.4
20260507130004 -3 107 1.6 4.8 0.00 0.13 0.00 59 1021.4
20260507125504 -3 107 3.2 4.8 0.00 0.13 0.00 57 1021.3
20260507125004 -3 107 3.2 4.8 0.00 0.13 0.00 59 1021.4
20260507124504 -3 107 0.0 0.0 0.00 0.13 0.00 57 1021.4
20260507124004 -3 107 0.0 1.6 0.00 0.13 0.00 57 1021.3
20260507123503 -3 107 1.6 3.2 0.00 0.13 0.00 57 1021.2
20260507123004 -3 104 3.2 4.8 0.00 0.13 0.00 57 1021.0
20260507122503 -3 99 3.2 4.8 0.00 0.13 0.00 58 1021.0
20260507122004 -3 98 3.2 4.8 0.00 0.13 0.00 58 1021.1
20260507121503 -3 97 1.6 4.8 0.00 0.13 0.00 59 1021.1
20260507121004 -3 97 3.2 4.8 0.00 0.13 0.00 61 1021.0
20260507120503 -3 97 1.6 4.8 0.00 0.13 0.00 61 1021.0
20260507120005 -3 97 0.0 1.6 0.00 0.13 0.00 60 1020.9
20260507115503 -3 97 0.0 1.6 0.00 0.13 0.00 57 1021.0
20260507115004 -3 97 0.0 1.6 0.00 0.13 0.00 57 1020.9
20260507114503 -3 97 1.6 3.2 0.00 0.13 0.00 58 1020.9
20260507114004 -3 95 3.2 4.8 0.00 0.13 0.00 59 1020.9
20260507113504 -3 67 4.8 4.8 0.00 0.13 0.00 59 1020.9
20260507113004 -3 59 3.2 4.8 0.00 0.13 0.00 58 1021.0
20260507112504 -3 59 4.8 4.8 0.00 0.13 0.00 58 1021.0
20260507112004 -3 42 3.2 4.8 0.00 0.13 0.00 57 1020.9
20260507111504 -3 42 3.2 4.8 0.00 0.13 0.00 54 1021.0
20260507111004 -3 42 3.2 4.8 0.00 0.13 0.00 54 1020.9
20260507110503 -3 42 4.8 4.8 0.00 0.13 0.00 55 1020.8
20260507110004 -3 339 1.6 3.2 0.00 0.13 0.00 56 1020.8
20260507105503 -3 339 0.0 0.0 0.00 0.13 0.00 58 1020.9
20260507105004 -3 339 0.0 0.0 0.00 0.13 0.00 55 1020.9
20260507104504 -3 339 0.0 0.0 0.00 0.13 0.00 55 1020.9
20260507104004 -3 339 0.0 4.8 0.00 0.13 0.00 52 1020.8
20260507103505 -3 339 4.8 4.8 0.00 0.13 0.00 50 1020.8
20260507103004 -3 339 4.8 4.8 0.00 0.13 0.00 51 1020.7
20260507102503 -3 338 1.6 4.8 0.00 0.13 0.00 51 1020.8
20260507102006 -3 338 0.0 0.0 0.00 0.13 0.00 52 1020.8
20260507101503 -3 338 0.0 1.6 0.00 0.13 0.00 51 1020.8
20260507101004 -3 338 1.6 4.8 0.00 0.13 0.00 49 1020.7
20260507100505 -3 338 1.6 4.8 0.00 0.13 0.00 49 1020.8
20260507100004 -3 338 1.6 4.8 0.00 0.13 0.00 49 1020.7
20260507095504 -3 338 0.0 0.0 0.00 0.13 0.00 49 1020.7
20260507095003 -3 338 0.0 0.0 0.00 0.13 0.00 49 1020.8
20260507094505 -3 338 0.0 3.2 0.00 0.13 0.00 49 1020.8
20260507094004 -3 338 0.0 0.0 0.00 0.13 0.00 48 1020.9
20260507093503 -3 338 3.2 4.8 0.00 0.13 0.00 49 1020.8
20260507093004 -3 338 3.2 4.8 0.00 0.13 0.00 48 1020.9
20260507092504 -3 25 3.2 4.8 0.00 0.13 0.00 48 1020.8
20260507092004 -3 30 1.6 3.2 0.00 0.13 0.00 49 1020.8
20260507091504 -3 30 1.6 3.2 0.00 0.13 0.00 51 1020.8
20260507091003 -3 30 4.8 4.8 0.00 0.13 0.00 54 1020.9
20260507090504 -3 28 8.0 8.0 0.00 0.13 0.00 55 1020.9
20260507090005 -3 29 4.8 8.0 0.00 0.13 0.00 54 1021.0
20260507085503 -3 24 8.0 9.7 0.00 0.13 0.00 57 1021.0
20260507085004 -3 22 6.4 8.0 0.00 0.13 0.00 56 1021.0
20260507084503 -3 22 4.8 11.3 0.00 0.13 0.00 57 1021.0
20260507084003 -3 23 8.0 9.7 0.00 0.13 0.00 57 1021.1
20260507083504 -4 29 4.8 8.0 0.00 0.13 0.00 57 1021.1
20260507083004 -4 31 1.6 4.8 0.00 0.13 0.00 57 1021.1
20260507082504 -4 32 3.2 8.0 0.00 0.13 0.00 58 1021.2
20260507082003 -4 35 6.4 8.0 0.00 0.13 0.00 59 1021.1
20260507081504 -4 35 4.8 8.0 0.00 0.13 0.00 60 1021.1
20260507081003 -4 31 4.8 8.0 0.00 0.13 0.00 61 1021.1
20260507080504 -3 32 4.8 9.7 0.00 0.13 0.00 61 1021.2
20260507080004 -3 31 4.8 9.7 0.00 0.13 0.00 61 1021.2
20260507075504 -3 31 8.0 9.7 0.00 0.13 0.00 60 1021.1
20260507075004 -3 27 8.0 14.5 0.00 0.13 0.00 57 1021.2
20260507074504 -3 14 6.4 12.9 0.00 0.13 0.00 57 1021.2
20260507074004 -3 333 6.4 14.5 0.00 0.13 0.00 57 1021.2
20260507073504 -3 340 9.7 20.9 0.00 0.13 0.00 57 1021.2
20260507073004 -3 338 11.3 24.1 0.00 0.13 0.00 59 1021.3
20260507072503 -3 345 8.0 16.1 0.00 0.13 0.00 61 1021.2
20260507072004 -3 344 9.7 24.1 0.00 0.13 0.00 63 1021.3
20260507071504 -4 340 11.3 19.3 0.00 0.13 0.00 65 1021.2
20260507071004 -3 13 6.4 14.5 0.00 0.13 0.00 65 1021.2
20260507070504 -3 21 8.0 16.1 0.00 0.13 0.00 65 1021.2
20260507070008 -3 14 9.7 16.1 0.00 0.13 0.00 65 1021.2
20260507065503 -3 18 4.8 16.1 0.00 0.13 0.00 65 1021.2
20260507065003 -3 345 8.0 19.3 0.00 0.13 0.00 65 1021.2
20260507064504 -3 348 9.7 22.5 0.00 0.13 0.00 65 1021.2
20260507064003 -3 344 12.9 24.1 0.00 0.13 0.00 65 1021.1
20260507063503 -3 339 14.5 22.5 0.00 0.13 0.00 65 1021.2
20260507063004 -3 340 11.3 19.3 0.00 0.13 0.00 65 1021.1
20260507062504 -3 354 9.7 20.9 0.00 0.13 0.00 66 1021.2
20260507062004 -3 5 4.8 19.3 0.00 0.13 0.00 68 1021.3
20260507061504 -3 30 9.7 19.3 0.00 0.13 0.00 67 1021.3
20260507061003 -3 22 11.3 19.3 0.00 0.13 0.00 66 1021.2
20260507060504 -3 19 9.7 16.1 0.00 0.13 0.00 65 1021.1
20260507060004 -3 7 9.7 20.9 0.00 0.13 0.00 65 1021.1
20260507055503 -3 5 6.4 19.3 0.00 0.13 0.13 64 1021.0
20260507055004 -3 353 11.3 19.3 0.00 0.13 0.13 63 1020.9
20260507054504 -3 347 9.7 19.3 0.00 0.13 0.13 63 1020.9
20260507054004 -3 343 9.7 19.3 0.00 0.13 0.13 63 1021.0
20260507053504 -3 347 8.0 14.5 0.00 0.13 0.13 62 1021.0
20260507053005 -3 348 8.0 16.1 0.00 0.13 0.13 63 1021.0
20260507052503 -3 349 8.0 14.5 0.00 0.13 0.13 64 1020.9
20260507052004 -3 22 6.4 16.1 0.00 0.13 0.13 65 1020.9
20260507051504 -3 351 8.0 16.1 0.00 0.13 0.13 65 1020.9
20260507051004 -3 343 9.7 19.3 0.00 0.13 0.13 65 1020.9
20260507050504 -3 354 9.7 16.1 0.00 0.13 0.13 66 1020.9
20260507050004 -3 339 8.0 19.3 0.00 0.13 0.13 65 1020.8
20260507045504 -3 352 8.0 16.1 0.00 0.13 0.13 65 1020.9
20260507045003 -3 350 11.3 19.3 0.00 0.13 0.13 65 1020.8
20260507044504 -3 349 11.3 20.9 0.00 0.13 0.13 65 1020.8